Location: Bakhuizen
(52.8696°N, 5.4575°E)
Time: 21:48:44
(UTC+00:00)

Cosmos 1782 - Pass Details

Date: 11 May 2021
Orbit: 537 x 550 km, 82.5° (Epoch: 24 June)

Event Time Altitude Azimuth Distance (km) Brightness Sun altitude
Rises 20:23:38 0° 186° (S) 2,707 6.0 -7.9°
Reaches altitude 10° 20:25:48 10° 185° (S) 1,817 5.1 -8.2°
Maximum altitude 20:29:47 79° 99° (E) 563 2.8 -8.6°
Drops below altitude 10° 20:33:48 10° 13° (NNE) 1,826 6.0 -9.0°
Sets 20:35:58 0° 12° (NNE) 2,721 6.9 -9.2°
